[[{"header":{"parameterUnit":"m.s-1","parameterCategory":1,"la1":30.2991,"la2":30.254,"lo1":-89.0895,"lo2":-89.0444,"dy":0.0017,"dx":0.0017,"nx":28,"ny":28,"refTime":"2026-01-01T03:00:00:Z","depth":0,"parameterNumber":2,"parameterNumberName":"U-component_of_WINDS"},"data":[0,0,0,0,0,0,0,0,0,0,0,0,0,0,0,0,0,0,0,0,0,0,0,0,0,0,0,0,0,0,0,0,0,0,0,0,0,0,0,0,0,0,0,0,0,0,0,0,0,0,0,0,0,0,0,0,0,0,5.0919,5.0921,0,5.1112,5.1114,5.1117,5.1026,5.1021,5.1016,5.1012,5.1214,5.1224,5.1234,0,0,0,0,0,0,0,0,0,0,0,0,0,5.0474,5.0483,5.0919,5.0921,5.0924,5.1112,5.1115,5.1117,5.1027,5.1021,5.1015,5.1009,5.1211,5.1223,5.1235,0,0,0,0,0,0,0,0,0,0,0,0,0,5.0668,5.0486,5.0918,5.0901,5.0901,5.1111,5.1115,5.1118,5.1028,5.1021,5.1013,5.1006,5.1207,5.1222,5.1237,5.1476,0,0,5.1282,5.1289,0,0,0,0,0,0,0,0,5.0657,5.0684,5.0901,5.0903,5.0903,5.1037,5.1032,5.1238,5.103,5.098,5.1011,5.1003,5.1162,5.118,5.1233,5.1486,5.1494,5.1284,5.1293,5.1299,5.1303,0,0,0,0,0,0,0,5.0644,5.0675,5.0995,5.0904,5.0906,5.0885,5.0904,5.1071,5.111,5.0984,5.0978,5.1002,5.1161,5.1218,5.1237,5.1497,5.1283,5.1296,5.1306,5.1312,5.1955,5.1963,0,0,0,0,0,0,5.063,5.0665,5.0989,5.1001,5.0759,5.0899,5.092,5.1002,5.1108,5.1117,5.1008,5.0997,5.1196,5.1219,5.1243,5.153,5.1299,5.1313,5.1322,5.1947,5.1957,5.1966,0,0,0,0,0,0,5.0621,5.066,5.0981,5.0831,5.0871,5.0914,5.1007,5.101,5.1067,5.1126,5.1133,5.1059,5.1192,5.1222,5.1418,5.1535,5.132,5.1333,5.1937,5.195,5.1961,5.2105,0,0,0,0,0,0,5.0609,5.0657,5.0748,5.0834,5.0879,5.1152,5.1014,5.1019,5.1092,5.108,5.1176,5.1185,5.1188,5.1396,5.1433,5.1552,5.1345,5.1927,5.1943,5.1957,5.209,5.212,5.2146,0,0,0,0,0,5.0593,5.0782,5.0753,5.0793,5.0993,5.1159,5.1185,5.1184,5.1102,5.1194,5.1232,5.1182,5.1517,5.1417,5.1458,5.1583,5.192,5.1938,5.1956,5.2077,5.2114,5.2146,0,0,0,0,0,0,5.0711,5.0793,5.0762,5.0984,5.1065,5.1144,5.126,5.1224,5.1331,5.1315,5.131,5.1333,5.1535,5.1579,5.1467,5.182,5.1706,5.1733,5.1784,5.182,5.1847,5.1833,5.1357,0,0,0,0,0,5.0762,5.0889,5.0955,5.1145,5.1187,5.1217,5.1289,5.1281,5.1365,5.1399,5.1451,5.1536,5.166,5.1743,5.186,5.2096,5.2115,5.2202,5.223,5.2253,5.2277,5.2403,5.2442,5.2026,5.2025,5.2025,0,0,5.0871,5.0931,5.1012,5.117,5.1231,5.1364,5.1246,5.1391,5.1489,5.1422,5.1609,5.165,5.1745,5.1961,5.2059,5.2004,5.2396,5.2276,5.2294,5.2306,5.2426,5.2465,5.25,5.2038,5.2036,5.2034,0,0,5.1135,5.1194,5.1358,5.1422,5.1516,5.1534,5.1574,5.1658,5.1682,5.1869,5.1821,5.1938,5.2153,5.2221,5.2284,5.2574,5.2531,5.2612,5.2761,5.2884,5.2917,5.2946,5.3048,5.3085,5.2636,5.2636,5.2636,0,5.1259,5.1454,5.1447,5.1596,5.1666,5.1609,5.1775,5.1838,5.1967,5.2017,5.1953,5.2219,5.228,5.251,5.258,5.2634,5.2679,5.2601,5.2912,5.2941,5.2968,5.3066,5.3104,5.2645,5.2644,5.2643,5.2642,0,5.16,5.1737,5.1858,5.1981,5.2066,5.2223,5.224,5.2326,5.2311,5.2336,5.2527,5.2597,5.2727,5.2781,5.2769,5.301,5.2973,5.2911,5.2796,5.3017,5.3108,5.3146,5.2658,5.2655,5.2652,5.265,0,0,5.1945,5.2061,5.2106,5.216,5.2259,5.2365,5.252,5.2645,5.2718,5.2809,5.2938,5.312,5.3063,5.3134,5.3129,5.3237,5.346,5.3162,5.3164,5.3214,5.373,5.3775,5.3818,5.3433,5.344,5.3445,5.3721,0,5.2216,5.2484,5.2481,5.273,5.2855,5.2802,5.2936,5.3012,5.304,5.3151,5.3182,5.3311,5.3226,5.3268,5.3373,5.3411,5.3564,5.3391,5.3553,5.3559,5.353,5.3866,5.3915,5.4172,5.3757,5.3763,5.3768,0,5.2568,5.2667,5.2928,5.3006,5.3059,5.318,5.3293,5.34,5.3485,5.3498,5.3577,5.3554,5.3711,5.3592,5.3808,5.3691,5.3757,5.3786,5.3796,5.381,5.3676,5.3889,5.4254,5.4292,5.3824,5.3819,5.3815,0,5.2792,5.2991,5.3172,5.3221,5.3318,5.3403,5.3448,5.3526,5.36,5.3701,5.3749,5.3867,5.3932,5.4024,5.4033,5.3946,5.4251,5.4133,5.4266,5.4266,5.4332,5.4328,5.4712,5.4377,5.4376,5.4375,5.4374,0,5.3094,5.3255,5.3273,5.3385,5.3564,5.356,5.3737,5.3774,5.3843,5.3961,5.3924,5.4036,5.4042,5.4157,5.4166,5.4343,5.4373,5.4388,5.4388,5.4391,5.4389,5.4433,5.4415,5.4385,5.4383,5.4381,5.4379,0,5.3374,5.3393,5.3587,5.3662,5.3685,5.3813,5.3878,5.3984,5.4007,5.4157,5.4192,5.423,5.4363,5.4381,5.4538,5.4544,5.4756,5.4739,5.4727,5.4724,5.4855,5.4842,5.5281,5.5338,5.4967,5.497,5.4973,0,5.3565,5.3688,5.3775,5.385,5.3899,5.4022,5.4097,5.4098,5.4178,5.4283,5.4377,5.4506,5.4609,5.4824,5.4866,5.4985,5.497,5.5115,5.4987,5.4986,5.497,5.4962,5.4974,5.514,5.5144,5.5147,5.515,0,5.3902,5.3905,5.4014,5.4127,5.4218,5.4307,5.4391,5.4456,5.4467,5.456,5.4694,5.4774,5.4932,5.5061,5.5178,5.5225,5.519,5.5189,5.5226,5.523,5.5217,5.5224,5.4793,5.5179,5.5176,5.5174,5.5173,5.5171,5.4143,5.4249,5.4326,5.4449,5.4512,5.4591,5.4693,5.4729,5.484,5.4968,5.4962,5.511,5.5191,5.5345,5.54,5.5516,5.5469,5.5522,5.5536,5.5549,5.5561,5.5199,5.5538,5.5537,5.5536,5.5536,5.5535,0,5.4477,5.4524,5.4637,5.4754,5.4851,5.4807,5.4897,5.4981,5.5111,5.5189,5.529,5.5444,5.5568,5.5619,5.5741,5.5824,5.5811,5.5856,5.5849,5.586,5.5597,5.5552,5.5864,5.5864,5.5864,5.5864,5.5864,5.5864,5.4662,5.4837,5.4849,5.5055,5.5101,5.5244,5.5299,5.5372,5.5433,5.5606,5.5708,5.574,5.5807,5.5933,5.6044,5.6056,5.6102,5.6155,5.6159,5.5913,5.5879,5.5847,5.5805,5.6165,5.6165,5.6412,5.6415,5.6416]},{"header":{"parameterUnit":"m.s-1","parameterCategory":1,"la1":30.2991,"la2":30.254,"lo1":-89.0895,"lo2":-89.0444,"dy":0.0017,"dx":0.0017,"nx":28,"ny":28,"refTime":"2026-01-01T03:00:00:Z","depth":0,"parameterNumber":3,"parameterNumberName":"V-component_of_WINDS"},"data":[0,0,0,0,0,0,0,0,0,0,0,0,0,0,0,0,0,0,0,0,0,0,0,0,0,0,0,0,0,0,0,0,0,0,0,0,0,0,0,0,0,0,0,0,0,0,0,0,0,0,0,0,0,0,0,0,0,0,0.6428,0.6428,0,0.6446,0.6446,0.6446,0.6423,0.6422,0.6421,0.642,0.6438,0.644,0.6441,0,0,0,0,0,0,0,0,0,0,0,0,0,0.6374,0.6375,0.6428,0.6428,0.6428,0.6445,0.6446,0.6446,0.6423,0.6422,0.6421,0.642,0.6438,0.644,0.6441,0,0,0,0,0,0,0,0,0,0,0,0,0,0.6395,0.6376,0.6428,0.6419,0.6418,0.6445,0.6446,0.6446,0.6423,0.6422,0.642,0.6419,0.6438,0.6439,0.6441,0.6478,0,0,0.6447,0.6448,0,0,0,0,0,0,0,0,0.6394,0.6397,0.642,0.642,0.6419,0.6431,0.6433,0.6457,0.6423,0.6421,0.642,0.6419,0.6437,0.6439,0.6445,0.6479,0.648,0.6447,0.6448,0.6449,0.645,0,0,0,0,0,0,0,0.6393,0.6396,0.6435,0.642,0.642,0.6414,0.6415,0.6438,0.6436,0.6421,0.642,0.6422,0.6436,0.6443,0.6445,0.648,0.6447,0.6449,0.645,0.6451,0.6545,0.6546,0,0,0,0,0,0,0.6392,0.6395,0.6434,0.6435,0.6403,0.6416,0.6418,0.6428,0.6436,0.6436,0.6423,0.6421,0.644,0.6443,0.6446,0.6489,0.6449,0.6451,0.6452,0.6544,0.6545,0.6547,0,0,0,0,0,0,0.6391,0.6396,0.6434,0.6415,0.6419,0.6418,0.643,0.6429,0.6436,0.6437,0.6436,0.643,0.644,0.6443,0.647,0.6489,0.6452,0.6454,0.6542,0.6544,0.6546,0.6577,0,0,0,0,0,0,0.639,0.6396,0.641,0.6415,0.642,0.6458,0.6431,0.643,0.6439,0.6436,0.6444,0.6444,0.6439,0.6467,0.6472,0.6491,0.6455,0.654,0.6543,0.6545,0.6574,0.658,0.6584,0,0,0,0,0,0.6388,0.6418,0.6411,0.6416,0.6438,0.6459,0.6462,0.6456,0.6441,0.6455,0.6455,0.6443,0.6487,0.647,0.6475,0.6496,0.6539,0.6542,0.6545,0.6572,0.6578,0.6584,0,0,0,0,0,0,0.6416,0.6419,0.6411,0.6444,0.6451,0.6455,0.6473,0.6463,0.6476,0.6473,0.6464,0.6466,0.6495,0.6498,0.648,0.6531,0.651,0.6515,0.6529,0.6535,0.654,0.6539,0.6457,0,0,0,0,0,0.6425,0.6442,0.6444,0.6473,0.6477,0.6475,0.6484,0.6478,0.6486,0.6489,0.6491,0.6499,0.6515,0.6525,0.6539,0.6574,0.6575,0.659,0.6595,0.66,0.6604,0.6622,0.6628,0.6557,0.6557,0.6557,0,0,0.6446,0.645,0.6461,0.6479,0.6484,0.6501,0.6478,0.6497,0.651,0.6492,0.6518,0.652,0.6528,0.6559,0.6573,0.6562,0.6623,0.6604,0.6607,0.6608,0.6625,0.6632,0.6638,0.6559,0.6559,0.6558,0,0,0.6493,0.6497,0.6522,0.6527,0.6535,0.6533,0.6539,0.6544,0.6545,0.657,0.6557,0.6572,0.6599,0.6605,0.6612,0.6659,0.6649,0.6664,0.6691,0.6709,0.6715,0.6719,0.6736,0.6742,0.6668,0.6668,0.6668,0,0.6518,0.6543,0.6535,0.6556,0.6564,0.6548,0.6572,0.6578,0.659,0.6596,0.6584,0.6616,0.6621,0.6653,0.6664,0.667,0.6676,0.6664,0.6714,0.6719,0.6724,0.674,0.6746,0.667,0.667,0.6669,0.6669,0,0.6573,0.6591,0.661,0.6622,0.6632,0.6654,0.6649,0.666,0.6653,0.6652,0.6678,0.6683,0.6697,0.6705,0.6698,0.6736,0.6729,0.6716,0.6694,0.6732,0.6747,0.6753,0.6672,0.6672,0.6671,0.6671,0,0,0.6639,0.6645,0.6652,0.6657,0.6664,0.6678,0.6699,0.6713,0.6722,0.6731,0.6749,0.6771,0.6759,0.6766,0.6761,0.6776,0.6813,0.6761,0.6761,0.677,0.6854,0.6863,0.6871,0.6806,0.6807,0.6808,0.6853,0,0.6685,0.6722,0.6715,0.675,0.6767,0.6751,0.6769,0.6776,0.6775,0.6789,0.6788,0.6804,0.6787,0.6791,0.6805,0.6805,0.683,0.6802,0.6822,0.6822,0.682,0.6878,0.6889,0.6931,0.6859,0.686,0.686,0,0.6744,0.6755,0.6792,0.6796,0.6802,0.6819,0.6831,0.6844,0.6851,0.6849,0.6857,0.6848,0.6869,0.6847,0.6875,0.6856,0.6864,0.6865,0.6866,0.6868,0.6844,0.6882,0.6945,0.6951,0.6869,0.6869,0.6868,0,0.6788,0.6811,0.6836,0.6841,0.6846,0.6858,0.6861,0.6866,0.6875,0.6885,0.689,0.6903,0.691,0.6919,0.6914,0.6898,0.6943,0.6921,0.6942,0.6942,0.6952,0.6952,0.7018,0.6957,0.6957,0.6957,0.6957,0,0.684,0.6864,0.6856,0.6871,0.6897,0.6888,0.6914,0.6915,0.6919,0.6934,0.6922,0.6936,0.6928,0.6942,0.6938,0.6961,0.6965,0.6964,0.6962,0.6965,0.6965,0.697,0.6967,0.6959,0.6958,0.6958,0.6958,0,0.6893,0.6889,0.6915,0.6918,0.6919,0.6938,0.694,0.6954,0.6952,0.6971,0.6975,0.6972,0.6988,0.6983,0.7,0.6997,0.7027,0.7022,0.7025,0.7024,0.7045,0.7043,0.7116,0.7125,0.7059,0.706,0.7061,0,0.6927,0.6945,0.6949,0.6958,0.6961,0.6976,0.6985,0.6977,0.6986,0.6994,0.7007,0.7022,0.7033,0.7058,0.7057,0.707,0.7065,0.709,0.7067,0.7068,0.7065,0.7064,0.7065,0.7094,0.7095,0.7096,0.7096,0,0.6988,0.6984,0.6997,0.7008,0.7019,0.7027,0.7035,0.7043,0.7036,0.7047,0.7062,0.707,0.7087,0.7101,0.7113,0.7115,0.7104,0.7103,0.7109,0.7112,0.7112,0.7112,0.7037,0.7102,0.7101,0.7101,0.71,0.71,0.7032,0.7046,0.7051,0.7065,0.707,0.7077,0.7091,0.709,0.7103,0.7116,0.711,0.7128,0.7133,0.7147,0.7151,0.7164,0.7155,0.7163,0.7165,0.7167,0.717,0.711,0.7167,0.7166,0.7166,0.7166,0.7166,0,0.7091,0.7093,0.7106,0.7117,0.7128,0.7117,0.7124,0.7134,0.715,0.7156,0.7166,0.7184,0.7197,0.7197,0.7209,0.722,0.7216,0.7224,0.7223,0.7224,0.7178,0.7172,0.7227,0.7227,0.7227,0.7227,0.7227,0.7227,0.7123,0.7147,0.7144,0.717,0.7172,0.7189,0.7194,0.7201,0.7205,0.7225,0.7236,0.7236,0.7239,0.7251,0.7263,0.7263,0.7268,0.7278,0.7276,0.7233,0.7227,0.7221,0.7215,0.7279,0.7279,0.732,0.732,0.7321]}]]